Theta_e
285 285 284 285 285 285 284 284 284 285 286 287 288 288 288 287 284 283 283 284 281 281 283 283 283 285 286 286 286 286 286 287 288 288 289 289 289 293 299 301 302 304 305 303 302 301 301 301 301 301 302 302 302 303 304 305 305 305 305 305 304 304 303 302 302 302 303 302 302 301 301 300 300 300
285 285 284 284 284 284 284 284 283 283 284 284 285 286 287 288 286 285 283 283 283 281 281 284 284 282 284 286 286 286 286 289 288 287 288 289 289 293 296 299 301 303 305 303 302 301 301 300 300 300 300 300 301 302 303 303 304 304 305 303 304 303 303 303 303 301 302 302 302 301 301 300 300 300
286 285 285 285 284 284 284 284 283 283 283 283 282 283 284 284 286 286 285 282 284 284 284 283 284 283 283 285 285 285 286 287 288 287 287 288 290 291 293 296 299 301 302 302 301 301 301 300 299 299 299 300 300 301 302 302 303 303 304 303 303 303 303 303 302 301 301 301 301 301 301 300 300 300
286 285 285 285 285 285 284 284 284 283 283 283 283 283 282 283 283 284 284 283 283 282 284 283 284 285 283 283 284 284 285 286 289 286 287 287 289 289 288 293 297 298 299 300 302 301 300 300 299 298 299 299 300 300 301 302 302 302 303 303 303 303 302 301 301 301 301 301 300 300 300 300 300 300
285 285 285 285 285 285 284 285 284 284 284 283 283 283 282 282 282 282 282 282 283 283 282 282 283 282 282 282 283 283 284 283 284 287 286 286 286 286 287 288 292 296 298 299 300 300 300 300 299 298 298 298 298 299 300 300 300 301 301 301 301 301 301 301 300 300 301 300 300 299 299 299 299 299
285 284 284 285 285 285 285 285 284 285 284 284 283 282 282 282 283 282 282 282 282 282 281 281 280 280 282 283 282 283 283 283 283 284 285 285 285 286 286 286 287 293 296 298 299 300 300 300 300 299 297 298 298 299 299 299 299 300 300 300 299 300 300 300 300 300 299 300 299 299 299 298 298 298
283 283 283 283 284 285 284 285 285 285 284 284 284 284 283 282 283 282 282 283 282 282 283 282 282 280 280 282 282 282 284 284 284 283 284 285 285 285 285 285 285 290 295 297 299 299 299 299 299 299 298 297 297 297 298 298 298 298 298 299 298 298 299 299 299 299 299 299 299 299 298 298 298 298
281 282 282 282 283 283 283 284 284 284 284 284 284 284 284 283 283 282 282 282 282 283 282 281 281 281 280 281 281 282 283 283 282 282 283 284 284 284 284 284 284 287 292 295 297 297 298 299 298 298 298 297 297 297 297 298 298 298 297 297 297 297 297 298 298 298 298 298 298 299 298 298 298 298
280 280 281 281 281 282 282 282 283 283 283 284 284 284 284 284 284 283 283 282 282 281 281 282 280 281 280 281 280 281 281 281 281 281 282 283 283 282 282 283 284 286 289 292 294 295 297 298 297 297 298 298 297 297 297 297 297 297 297 296 296 297 296 297 297 297 297 297 297 297 298 297 297 297
280 280 280 281 281 280 281 282 282 282 282 283 283 283 284 284 284 283 282 282 281 281 281 281 281 279 279 280 280 280 281 282 281 280 281 280 281 281 281 281 282 283 284 285 288 292 294 296 297 297 297 298 297 297 297 297 297 297 296 296 296 295 296 296 296 296 296 296 296 296 297 297 297 297
280 280 280 280 280 280 280 281 281 282 282 283 282 283 283 284 283 283 283 283 282 281 281 281 281 281 280 280 280 280 281 282 282 281 280 279 280 280 281 281 282 282 283 285 288 289 290 292 293 295 296 297 297 297 296 297 297 296 295 295 295 295 296 295 295 295 295 295 295 295 295 295 296 296
280 280 280 280 280 280 281 281 281 281 281 282 282 283 283 283 283 282 283 283 282 282 282 281 281 279 279 278 279 279 279 279 280 281 281 280 280 280 281 282 282 282 281 281 282 287 290 291 292 294 295 295 296 296 296 296 295 294 295 295 295 295 295 295 295 294 294 294 294 294 294 294 294 296
280 280 280 280 280 281 283 284 284 284 285 282 281 282 282 282 282 282 283 283 282 282 282 282 282 280 278 278 279 278 278 278 280 281 281 281 282 281 281 281 282 282 281 281 280 281 283 285 286 287 288 290 293 293 294 294 293 294 295 295 295 295 294 295 295 294 293 293 293 293 293 293 293 294
280 280 280 280 283 283 284 284 285 286 287 287 285 283 282 282 281 281 281 282 282 282 281 282 282 281 280 279 279 279 280 280 280 280 280 280 281 280 280 281 281 282 281 279 279 280 282 283 284 285 285 287 289 289 291 291 292 293 295 295 295 295 294 294 294 294 293 293 293 292 292 292 292 293
279 279 280 280 281 282 282 283 285 286 287 287 287 288 287 286 283 281 281 281 281 281 281 282 282 282 281 282 280 280 280 280 280 281 280 280 280 279 278 278 280 281 281 279 279 279 281 282 282 283 284 285 286 287 288 292 293 293 295 295 295 294 294 294 293 293 293 293 292 292 292 292 292 292
279 279 279 280 280 280 280 280 280 282 285 286 286 287 287 288 288 288 285 282 281 281 281 281 281 282 282 282 282 280 280 279 280 281 281 280 280 280 279 280 280 280 282 279 279 279 281 281 281 281 283 284 284 285 288 292 294 294 294 295 295 294 294 294 293 293 293 293 292 291 292 292 292 292
278 278 278 279 279 280 282 282 281 280 280 283 285 286 286 287 288 288 289 289 286 284 282 281 281 282 283 282 283 283 281 282 281 281 280 280 280 281 280 280 281 279 281 280 279 278 280 280 279 279 282 282 283 284 289 291 293 294 294 294 294 294 294 293 293 293 293 292 292 292 292 292 292 291
277 277 277 277 278 279 279 280 280 279 280 280 280 280 281 281 283 286 287 288 288 287 285 283 282 283 284 283 284 284 283 282 281 281 280 281 281 280 281 282 282 280 281 279 279 278 279 279 279 278 280 282 282 283 286 290 292 293 294 294 294 294 294 293 293 292 292 292 291 292 292 291 291 291
276 276 276 276 276 277 278 279 280 279 279 279 279 279 279 280 280 281 281 282 283 284 285 285 285 285 285 285 285 285 283 283 283 283 282 283 282 282 283 282 282 281 280 281 280 278 281 280 278 278 279 280 281 281 285 288 291 293 293 294 294 294 294 293 293 292 292 292 291 292 291 291 291 291
275 275 275 275 275 275 276 278 280 281 280 279 279 278 278 279 280 280 283 285 286 284 284 284 285 285 286 288 286 286 284 282 283 284 284 283 282 281 280 279 281 281 280 280 280 279 280 279 279 278 279 280 279 280 280 286 289 291 292 293 293 293 294 293 293 292 292 292 291 292 291 291 291 291
273 274 274 274 274 274 274 278 280 281 281 278 278 278 278 279 279 279 281 284 286 287 288 288 288 289 289 290 290 290 291 287 284 282 281 280 281 279 278 278 279 280 280 279 280 280 279 278 278 278 278 279 279 279 279 280 286 289 291 292 292 293 293 293 292 292 292 291 291 291 291 291 291 290
273 273 275 275 273 273 273 277 279 280 279 277 278 278 278 278 278 279 280 281 282 286 287 288 288 288 289 289 290 291 291 291 289 282 280 281 281 279 279 278 279 280 280 279 281 279 279 280 278 277 276 277 278 279 279 279 281 286 288 291 292 292 292 293 292 291 291 291 291 291 291 291 290 288
272 272 274 275 274 274 275 278 279 280 278 276 277 278 278 277 277 278 280 280 280 280 280 281 283 284 286 286 286 286 289 290 289 286 283 283 281 279 279 279 279 278 279 280 281 278 278 279 277 277 274 273 275 278 278 279 279 281 283 286 288 291 291 291 291 291 291 291 291 291 291 291 290 286
270 271 271 272 275 276 277 278 278 279 279 276 275 276 276 276 277 279 279 280 280 279 280 280 280 281 282 282 283 284 284 286 286 287 285 284 283 281 280 280 279 278 280 281 281 279 280 280 276 279 278 276 274 274 277 277 279 279 282 284 285 289 290 290 290 290 291 291 291 291 291 290 289 285
267 268 269 270 273 276 277 277 278 279 279 279 276 276 276 277 279 281 279 279 282 280 280 280 280 280 280 280 281 282 282 283 284 285 286 285 284 283 281 280 280 280 281 281 283 280 278 278 277 278 276 277 274 273 274 277 278 279 281 283 284 285 286 286 287 287 289 290 290 290 290 290 289 286
268 268 268 269 271 274 275 275 276 277 278 278 276 276 280 281 282 280 281 281 280 279 279 279 279 279 279 279 279 280 281 282 283 283 284 285 285 284 284 283 281 280 280 283 285 281 280 278 278 277 276 276 273 274 273 274 276 278 280 282 283 283 285 285 285 285 286 286 286 288 288 290 289 289
267 268 268 269 272 273 274 275 276 276 277 277 275 278 280 280 281 280 279 280 281 280 279 278 278 278 279 278 278 279 279 281 282 283 283 284 285 285 285 285 285 284 284 283 283 282 281 279 280 278 277 277 276 273 273 272 273 276 277 279 280 281 282 283 283 283 284 284 285 288 289 289 289 288
268 268 267 268 273 274 275 276 276 277 276 275 277 278 278 278 278 277 278 278 279 280 279 278 278 278 278 279 278 279 280 280 281 282 282 283 283 284 284 285 285 285 285 282 282 282 282 281 279 280 280 277 275 274 273 275 275 275 274 277 277 279 280 281 282 282 282 283 282 284 284 283 285 285
268 271 274 275 275 275 276 276 276 275 275 275 276 276 276 276 274 275 276 277 278 279 279 279 278 278 279 279 280 280 280 280 280 279 281 282 283 283 284 284 284 284 284 282 282 282 282 282 280 280 280 279 277 276 277 274 273 274 275 275 273 276 278 279 280 280 280 279 280 281 281 281 281 283
274 275 275 275 275 274 273 270 269 269 270 273 275 276 275 273 273 274 275 276 277 278 279 280 279 279 279 280 280 280 279 278 278 279 279 279 279 281 281 281 280 277 278 281 281 282 282 282 281 280 279 279 279 278 278 276 273 274 275 274 275 276 276 276 276 277 279 277 278 278 279 279 278 279
267 268 270 269 272 273 274 274 274 274 274 272 271 271 271 271 272 273 274 274 275 277 278 280 281 281 280 280 279 277 277 277 278 279 278 278 278 279 279 279 279 278 275 276 279 281 282 281 281 281 278 278 278 278 279 278 275 273 274 275 275 271 273 275 275 276 276 276 277 276 276 276 276 278
267 267 269 270 269 268 268 268 268 268 268 269 269 269 270 271 272 273 275 275 275 276 279 280 281 281 280 279 278 278 277 278 278 278 278 278 277 277 277 277 277 278 275 273 274 275 277 280 281 280 280 279 277 277 278 277 276 274 273 275 275 275 275 273 274 275 275 275 275 274 275 274 274 275
268 267 266 266 266 266 266 267 267 268 268 268 269 270 270 271 271 272 272 272 273 275 277 278 279 280 280 280 279 278 277 277 277 277 277 277 277 275 276 276 277 276 273 272 271 273 274 274 275 278 279 279 279 278 275 273 274 275 273 273 274 273 274 274 274 274 275 274 273 273 272 273 274 274
269 268 268 268 268 267 267 267 267 267 267 267 268 269 271 271 271 271 272 273 274 276 277 278 278 279 279 279 279 279 278 277 277 277 278 276 276 275 275 275 276 277 275 273 271 271 271 271 272 271 271 270 270 274 276 276 274 274 274 274 273 272 273 273 274 274 274 273 273 271 271 272 273 274
268 268 267 268 268 268 268 267 267 268 268 268 268 268 269 270 271 272 272 273 274 275 277 278 279 279 279 278 279 279 278 278 278 277 277 277 276 276 275 275 275 275 273 272 270 270 271 270 271 270 269 270 270 270 273 272 274 273 273 273 273 272 272 273 273 273 273 273 273 270 270 271 271 273
267 267 266 266 266 266 266 267 267 268 268 268 268 268 268 269 270 271 271 273 275 276 277 277 278 278 278 278 279 279 279 278 278 276 275 276 275 275 275 275 275 274 273 272 271 270 270 270 271 270 269 268 269 269 270 275 274 273 272 271 272 271 272 272 273 273 272 272 272 271 269 268 270 272
265 264 265 265 265 265 265 267 267 267 268 268 268 268 268 268 269 270 272 274 274 274 275 277 277 278 277 278 278 278 278 278 277 276 275 275 275 275 274 274 274 273 272 272 271 270 270 270 271 271 270 269 268 268 270 271 271 274 273 271 270 271 271 271 271 270 271 272 271 271 270 270 269 271
263 264 264 265 266 266 267 267 268 268 268 269 269 269 268 269 270 271 272 272 273 274 275 276 276 277 277 277 277 277 277 277 277 275 275 275 274 273 273 273 273 272 271 271 270 269 270 270 270 271 271 269 268 268 268 267 267 270 274 273 270 270 271 270 269 269 269 271 270 271 271 269 270 271
264 265 265 265 266 267 267 267 268 268 269 269 269 269 269 269 270 270 271 272 273 273 274 274 275 276 276 276 277 277 276 276 275 275 274 274 274 273 273 273 272 271 270 268 268 268 269 269 270 271 272 271 270 270 271 267 266 269 274 276 272 271 270 270 269 269 269 269 269 271 270 272 273 273
265 265 266 266 266 266 266 267 267 269 269 270 270 270 269 270 270 270 271 272 273 274 275 275 276 276 276 276 277 277 277 276 275 275 274 273 273 273 273 273 272 270 268 268 267 267 267 268 270 270 272 272 270 271 271 269 267 269 271 274 276 273 270 271 268 268 267 269 270 268 266 269 265 269
262 262 263 264 264 264 264 265 266 267 269 270 270 270 270 270 271 271 272 272 273 274 274 275 275 275 275 276 275 275 275 275 275 275 274 273 272 272 272 272 271 270 268 267 267 266 267 268 270 273 269 267 269 271 268 267 265 266 268 271 275 275 274 273 270 269 267 270 268 266 266 265 264 267
260 260 261 262 262 263 263 264 266 267 269 271 270 270 270 271 271 273 273 273 274 274 274 274 274 274 274 274 274 274 274 274 274 273 273 273 272 271 271 271 270 269 268 267 267 267 267 269 270 269 268 269 269 268 266 267 265 266 267 269 271 275 275 274 274 272 271 269 267 264 264 264 266 263
259 259 260 261 261 262 263 265 266 267 269 271 271 271 271 272 273 274 274 274 275 275 275 274 274 273 274 274 275 275 274 273 273 273 272 272 271 270 270 270 270 269 269 269 267 267 267 268 268 267 268 268 268 269 267 267 266 266 266 266 266 269 272 275 274 274 274 273 272 269 268 265 264 260
258 258 259 260 260 262 263 264 265 266 267 269 271 271 271 271 271 272 273 274 274 275 275 275 274 273 273 273 274 274 274 273 273 272 271 271 271 271 270 270 270 269 268 267 266 266 267 267 267 267 267 266 267 267 266 266 265 265 265 265 265 266 265 266 269 272 273 274 274 273 273 273 272 271
257 258 258 259 260 261 262 263 264 265 266 267 268 270 272 272 272 273 273 274 274 274 273 272 272 272 272 271 272 272 272 274 273 271 271 270 270 270 270 269 268 268 267 266 265 265 266 266 267 267 266 266 266 266 266 266 265 264 264 264 264 265 264 265 265 265 265 264 269 271 271 271 271 271
Wind_Speed
6 6 6 7 6 7 5 6 6 7 6 6 7 8 10 9 11 12 11 11 7 4 9 6 5 11 11 11 10 10 10 12 13 10 11 11 10 13 21 23 23 23 23 22 22 22 21 20 20 20 19 19 19 19 19 19 18 18 19 9 8 9 8 9 9 11 13 12 12 12 11 11 10 9
6 6 6 5 6 6 6 6 6 6 7 7 7 7 8 8 12 12 11 14 6 5 4 8 5 5 10 10 9 9 11 14 14 10 11 11 11 15 20 22 24 24 24 23 22 23 22 21 21 21 20 20 21 21 20 20 20 19 20 12 14 13 12 15 16 15 15 15 14 13 13 12 11 11
5 5 6 6 6 5 7 6 6 6 6 7 7 7 6 8 11 11 10 13 7 6 7 8 8 7 8 9 9 8 9 11 14 12 11 12 13 17 15 20 21 24 24 22 23 23 24 23 22 22 21 21 22 21 21 22 21 20 22 14 16 16 15 17 18 16 16 15 14 13 13 12 12 11
6 6 7 7 6 6 6 6 6 6 6 6 7 7 7 8 8 8 10 13 16 4 7 6 8 10 8 7 9 9 8 9 14 10 11 12 14 11 9 18 21 22 22 23 23 23 23 23 23 23 22 22 22 22 22 22 22 22 23 19 19 21 20 20 19 19 17 16 15 14 13 13 12 12
5 7 7 8 7 6 6 7 6 6 6 6 6 6 7 8 7 7 9 12 15 7 4 4 6 4 4 5 7 9 9 7 8 11 11 10 9 9 10 11 19 22 22 23 24 24 24 24 23 23 23 23 23 22 23 22 23 23 22 21 20 21 21 21 20 19 19 17 16 15 14 14 13 12
6 5 7 9 8 7 7 7 7 7 7 6 6 7 7 8 8 7 8 11 11 15 4 5 3 3 5 8 4 10 10 10 9 11 11 9 10 10 10 10 11 21 23 23 23 24 25 25 24 24 24 23 23 23 23 23 23 23 22 21 21 21 21 21 21 21 20 19 18 17 16 15 14 13
6 7 6 8 8 7 7 8 7 6 7 7 7 9 6 8 8 7 9 9 12 13 10 6 7 5 4 9 8 9 10 10 9 11 10 11 9 10 10 10 9 14 21 23 24 24 24 24 25 24 25 24 24 24 24 24 24 24 24 23 23 22 21 22 22 22 21 20 20 18 17 17 16 15
6 7 7 7 7 7 8 9 8 7 7 7 8 8 7 7 9 7 7 10 11 10 12 6 8 5 7 8 6 6 7 8 7 8 8 6 8 7 7 9 9 10 19 22 23 24 24 25 26 25 25 25 25 25 25 24 25 25 25 24 25 24 23 21 22 23 22 22 21 20 18 18 17 16
7 7 7 8 6 6 8 9 8 8 8 8 8 9 8 8 8 6 7 9 8 11 13 10 4 6 6 5 4 6 7 6 7 5 8 9 9 7 6 5 6 8 16 20 22 22 23 24 27 28 26 25 26 25 25 26 25 26 26 25 24 25 24 22 23 22 22 22 20 20 19 18 18 17
7 7 8 7 6 6 7 9 8 8 9 9 9 10 9 8 7 8 8 8 9 10 12 10 9 5 7 5 6 7 8 9 8 7 7 5 5 6 6 8 7 7 8 9 12 17 20 22 25 29 28 26 27 27 27 26 26 25 24 23 23 25 25 24 24 23 23 21 20 20 20 19 19 18
8 8 8 8 7 8 8 9 9 9 9 9 10 10 10 9 8 9 9 8 9 10 11 10 9 9 7 7 9 6 8 9 10 11 8 9 7 6 10 11 8 8 9 10 13 12 11 12 14 22 28 28 27 28 26 26 26 24 23 23 26 24 24 25 24 22 22 21 21 20 19 19 19 19
8 9 9 9 9 9 9 9 9 8 9 8 9 9 8 8 9 9 9 9 9 10 10 11 10 7 7 6 5 1 4 6 8 8 8 11 10 11 11 12 12 9 8 9 9 10 11 11 14 17 23 30 29 28 25 26 24 24 23 24 25 25 24 24 24 23 22 21 21 20 20 19 19 19
10 9 9 9 10 11 14 17 15 13 11 8 9 10 8 8 9 9 9 9 9 9 10 11 9 8 7 8 8 8 8 12 13 6 7 11 10 6 7 9 9 8 9 9 7 9 10 10 11 12 12 15 22 21 23 18 24 23 24 25 25 25 24 24 24 24 24 23 23 21 21 20 20 19
12 12 11 10 15 17 18 19 19 17 18 19 14 11 9 9 9 9 10 10 9 9 11 11 10 9 10 10 9 10 11 8 4 6 10 12 7 5 9 9 9 9 8 7 10 11 8 11 12 11 13 12 13 12 14 14 15 21 26 26 26 26 25 25 25 24 23 23 23 23 21 20 20 19
14 13 12 11 13 14 15 15 18 19 19 19 21 22 20 16 12 10 11 11 10 10 11 11 10 11 13 13 8 10 9 7 10 11 9 10 8 10 11 14 6 8 10 10 8 10 9 11 13 13 14 13 11 12 13 20 22 23 26 27 26 27 27 27 27 25 25 24 24 24 22 21 21 20
13 13 13 12 11 11 12 12 11 14 17 20 21 22 22 21 22 20 15 13 11 11 11 12 12 11 13 12 8 7 8 8 8 9 9 10 12 12 12 12 12 5 13 9 10 14 8 10 13 13 13 12 12 13 14 21 24 25 26 27 28 28 28 28 28 27 25 25 26 26 23 23 22 22
14 13 13 13 12 11 17 15 12 12 12 15 19 21 23 23 22 22 24 23 18 12 13 12 14 13 12 13 11 9 8 7 12 10 11 11 11 11 12 13 10 5 12 10 11 14 11 11 13 14 14 10 10 12 17 24 26 27 28 28 28 27 28 28 29 28 26 26 28 26 25 24 23 23
13 13 12 12 13 12 13 12 13 13 13 13 12 12 12 12 15 18 23 24 25 21 15 14 16 16 13 14 11 7 7 10 11 10 12 11 12 11 15 12 6 6 12 15 11 10 9 11 12 14 13 10 11 12 16 25 27 27 28 27 28 28 28 28 29 29 27 28 29 28 26 25 24 23
13 13 13 13 14 14 14 12 15 14 14 13 14 13 14 13 13 13 13 14 13 13 14 15 17 18 14 12 13 9 8 11 11 11 12 12 12 12 11 9 8 7 9 10 9 13 11 7 9 14 12 9 11 11 13 23 26 27 27 29 28 29 29 29 29 30 28 29 30 28 27 26 25 24
10 11 12 13 12 13 15 19 29 26 19 16 16 17 16 15 14 14 12 17 16 15 14 13 15 15 15 14 13 11 9 8 8 7 7 6 7 8 9 12 9 10 7 12 12 10 9 7 13 13 7 8 11 10 9 18 25 27 30 28 29 31 28 29 29 31 29 30 31 28 27 26 25 24
14 14 12 13 13 15 15 22 28 29 26 18 18 18 17 16 15 15 14 17 22 24 24 23 22 22 22 21 20 20 22 16 8 6 7 11 8 10 11 12 10 11 8 9 12 10 10 6 10 8 5 10 11 10 11 10 19 25 27 30 31 29 30 30 31 31 29 31 30 28 28 26 24 25
12 15 28 25 18 17 18 26 30 30 25 19 18 18 18 19 18 17 14 12 12 18 22 24 26 26 26 25 24 22 22 22 16 10 13 11 9 11 12 14 11 7 8 10 13 9 13 4 4 4 1 3 5 8 8 8 10 20 22 28 30 30 30 29 31 31 31 30 28 29 27 25 24 17
10 13 15 24 24 22 23 32 30 31 25 18 18 18 17 19 19 18 15 15 14 12 11 12 14 16 19 18 16 15 23 22 19 14 14 10 11 11 13 13 8 9 11 11 13 11 11 8 4 6 3 5 5 4 6 8 9 10 11 13 18 29 30 30 29 31 31 29 29 27 27 26 23 10
10 12 14 17 23 28 30 31 32 30 31 23 19 18 18 19 21 16 16 17 14 15 13 13 13 14 13 12 10 11 13 15 15 15 13 12 12 12 13 12 12 13 11 5 16 13 10 7 7 8 9 7 6 4 8 8 9 10 11 11 11 20 27 27 26 35 31 28 29 28 28 28 24 10
16 15 13 12 18 25 26 27 28 28 28 26 20 18 18 19 21 22 17 19 23 17 15 14 13 12 11 11 10 10 10 11 12 13 14 13 13 13 13 13 13 13 13 7 18 12 11 7 9 7 7 6 1 1 3 7 7 8 11 12 12 11 12 14 12 15 24 29 28 29 29 28 31 16
13 15 14 15 20 27 28 29 29 31 30 31 21 19 27 31 32 25 20 17 15 14 13 13 13 12 12 11 10 10 10 11 12 12 13 13 13 14 14 14 13 12 14 9 22 12 9 7 10 10 7 8 4 2 3 4 6 7 8 7 9 9 11 11 11 11 11 12 14 20 22 30 30 27
13 11 13 15 25 29 30 30 31 31 33 28 22 32 32 32 35 31 19 18 16 15 14 14 14 13 12 12 11 10 11 11 11 11 12 12 12 12 12 13 13 13 10 6 13 12 11 8 8 12 10 9 8 2 3 5 5 6 7 7 6 6 6 8 10 10 10 10 10 21 26 28 29 30
10 11 11 14 28 30 30 31 31 30 28 22 30 32 36 36 32 21 20 18 18 17 15 15 14 14 13 12 12 11 11 11 11 11 10 10 10 11 11 12 14 12 11 7 12 12 11 11 8 10 12 11 10 10 8 2 1 8 9 8 5 6 7 8 9 8 8 8 8 11 12 12 14 17
14 21 31 33 32 31 31 32 31 26 25 28 28 30 30 30 17 16 15 17 16 17 17 15 15 14 14 13 13 12 11 9 7 6 7 9 10 10 11 11 11 11 10 7 10 11 11 11 11 9 10 10 12 11 10 8 8 8 10 9 6 8 8 6 6 7 8 7 9 10 11 10 10 10
33 32 31 34 33 29 25 19 13 12 14 22 28 31 29 16 14 14 15 16 16 17 16 16 15 14 12 12 12 12 9 8 9 9 10 8 9 9 9 9 8 4 4 6 9 10 11 11 10 10 10 11 12 12 11 8 7 7 10 12 9 5 6 10 10 10 10 9 9 9 7 7 8 8
17 20 21 18 24 24 30 30 28 25 24 20 17 14 13 13 13 14 13 15 16 18 17 17 14 13 12 11 10 9 8 10 10 10 10 9 10 9 9 9 9 8 5 4 5 8 11 11 10 10 11 11 10 12 10 9 9 9 9 10 10 12 9 9 5 9 8 7 7 7 6 6 6 4
15 15 17 21 16 14 13 13 11 11 11 12 13 12 12 13 15 19 24 24 19 18 18 18 15 12 11 12 11 9 10 10 10 9 9 10 10 8 7 7 10 9 7 5 5 5 4 8 10 9 11 11 13 10 7 7 10 10 9 10 10 8 5 14 13 7 6 7 9 9 9 7 6 5
12 11 11 11 11 11 12 12 11 10 10 11 11 14 12 11 13 13 13 14 15 14 15 16 15 14 12 11 10 10 10 10 10 8 9 9 9 6 8 11 11 10 8 8 5 4 3 3 1 3 6 7 7 9 10 9 8 8 11 10 10 9 6 8 8 6 8 8 10 9 7 6 5 5
11 9 10 10 11 12 10 11 11 11 10 11 11 10 15 15 11 11 12 12 15 15 17 17 16 14 11 11 11 10 11 9 9 8 10 10 9 9 10 11 11 9 8 8 7 8 5 3 4 4 5 4 5 1 7 12 11 10 9 9 11 11 8 10 7 9 9 13 13 10 9 7 6 5
7 8 8 9 9 10 10 10 12 11 11 11 11 11 10 10 13 13 12 11 12 14 14 17 17 15 14 13 12 11 10 10 9 8 9 8 9 10 10 10 10 8 8 7 7 6 6 6 6 5 3 3 1 3 1 1 7 9 8 9 9 10 9 11 11 7 7 7 6 11 6 3 5 6
8 8 9 10 10 11 11 12 11 11 11 10 11 11 11 10 10 12 11 11 9 11 13 15 14 11 12 12 11 11 10 10 10 9 9 9 9 9 9 10 10 8 8 9 9 8 8 9 9 10 9 7 8 8 9 8 4 6 11 9 7 7 7 7 8 8 10 11 8 7 11 8 6 6
9 8 9 9 10 10 13 12 12 12 12 11 12 11 11 11 9 11 12 12 12 13 14 12 11 11 10 10 10 10 10 10 10 9 10 10 10 10 9 8 9 8 8 9 7 8 9 10 10 10 11 10 10 13 10 4 2 5 4 9 7 8 9 10 9 9 5 5 4 7 9 5 6 6
8 9 9 10 10 11 11 12 11 12 11 12 12 12 10 11 9 11 12 11 12 11 12 12 11 8 6 7 8 8 8 9 9 9 10 10 10 10 11 11 10 8 8 7 7 9 9 9 11 11 11 12 12 12 9 1 3 3 7 8 9 8 8 9 10 10 10 7 4 5 6 4 5 5
8 9 9 10 11 11 11 12 11 13 12 12 10 11 10 9 9 10 11 11 11 10 10 10 9 9 8 8 9 9 9 8 9 10 10 10 11 11 10 10 9 7 7 7 6 7 7 9 11 11 12 12 13 12 9 8 8 8 11 17 13 12 11 12 11 9 8 9 8 4 5 4 6 7
11 10 10 11 11 12 12 12 13 13 12 11 11 10 8 9 9 9 10 11 10 10 11 12 11 10 9 9 9 9 10 11 12 10 9 9 9 10 10 9 10 8 8 9 8 9 10 10 11 11 11 7 0 3 5 5 4 3 4 12 16 9 11 10 10 10 9 6 7 8 8 5 4 3
11 11 11 11 12 13 13 14 14 13 13 12 10 9 8 8 9 9 9 9 9 10 10 11 11 10 9 9 9 8 9 9 10 10 10 9 9 9 10 9 8 9 10 11 11 10 13 12 7 6 6 5 6 8 7 5 5 5 7 6 13 11 9 8 6 7 9 8 7 9 8 7 5 3
11 12 12 11 12 13 13 12 13 14 14 11 8 7 7 9 9 14 13 15 13 12 10 8 7 7 8 8 7 7 9 9 8 8 9 10 10 9 10 10 9 9 10 11 12 11 4 6 7 6 6 6 7 8 8 9 7 6 7 6 6 11 14 14 12 10 8 8 9 8 5 3 3 4
11 10 12 12 13 13 12 12 14 13 14 11 8 7 7 8 8 9 8 9 9 9 9 9 8 7 7 7 7 8 9 8 8 9 9 10 9 9 9 10 10 10 10 8 4 6 7 7 7 7 7 6 6 6 8 7 7 7 7 7 7 5 7 13 16 14 13 13 10 6 5 5 6 6
9 10 11 12 12 11 11 12 13 13 13 13 10 8 8 8 9 10 9 9 9 9 9 9 8 8 8 7 6 7 8 8 9 8 7 7 8 9 10 10 9 8 6 6 7 7 7 7 7 7 8 8 6 5 6 6 6 6 7 6 4 7 6 4 5 9 10 12 13 12 11 8 5 4
10 10 11 11 11 11 12 12 12 13 13 12 12 11 9 7 8 9 8 8 8 8 6 6 6 6 5 5 6 7 7 6 6 7 7 7 7 7 7 7 7 7 7 7 8 6 7 7 6 5 5 4 3 3 4 6 7 7 7 7 8 6 5 4 6 6 5 4 6 8 7 5 4 3
Wind_Direction
275 277 268 261 269 268 260 254 256 251 248 234 229 219 231 234 250 264 265 257 236 254 208 228 242 206 217 220 218 216 215 217 206 202 208 212 214 215 216 217 220 221 220 217 214 213 210 210 211 215 217 219 224 227 228 236 243 223 219 201 189 176 170 173 195 215 212 210 205 203 200 198 192 188
277 276 281 272 270 269 271 256 245 247 244 242 231 228 231 222 240 251 257 267 187 245 238 215 240 213 220 219 221 211 218 217 204 207 209 212 216 211 212 215 217 219 221 220 216 212 210 209 209 213 216 219 222 224 225 226 234 225 209 175 190 194 195 200 212 219 216 213 209 206 204 199 195 193
288 283 284 282 273 269 268 266 256 249 251 248 240 242 228 229 234 244 250 269 249 171 226 233 232 227 222 215 220 219 223 219 207 208 212 216 217 211 213 214 216 218 220 220 216 214 211 209 208 211 214 216 220 222 224 224 224 225 216 187 197 199 201 212 217 217 216 215 212 210 208 206 202 198
303 297 290 282 278 277 274 274 267 258 246 244 249 243 234 238 231 234 245 249 261 176 217 217 229 225 225 209 213 220 225 224 211 212 215 219 218 212 218 219 218 219 220 220 217 214 212 209 208 210 212 215 219 221 223 225 223 221 223 209 214 219 217 213 212 213 213 213 213 210 211 210 208 204
304 300 295 291 282 278 275 271 271 271 258 250 248 246 245 247 233 221 236 250 265 260 235 218 229 241 210 247 209 220 222 218 218 216 221 215 209 210 213 219 221 220 220 220 218 215 212 210 208 208 211 214 217 220 222 224 224 221 224 221 216 214 212 210 208 209 209 209 209 211 211 211 209 207
310 301 298 296 294 287 278 279 275 268 269 259 255 247 237 245 245 221 233 252 259 267 232 263 238 254 192 235 193 210 214 221 212 217 218 214 210 211 211 212 218 220 220 220 218 216 214 211 210 208 209 211 214 217 219 221 222 222 220 219 217 215 211 209 209 207 206 206 206 207 207 208 207 206
303 306 299 296 296 296 291 283 274 271 267 261 256 257 237 246 247 233 228 249 259 263 259 214 241 221 216 212 220 210 223 224 214 219 218 213 214 216 212 213 217 219 220 219 219 219 217 214 212 210 209 209 211 213 216 218 220 221 220 218 217 215 214 211 209 209 206 204 205 204 203 203 205 204
297 293 297 291 291 295 294 288 285 276 269 266 264 262 254 244 251 238 235 233 252 264 270 229 218 216 216 239 230 215 223 221 222 220 230 231 229 226 222 221 223 220 221 222 222 222 221 218 219 214 211 209 210 211 214 216 218 220 220 218 216 213 212 212 211 210 208 206 206 203 200 200 202 201
280 281 275 279 283 282 285 288 287 282 275 270 267 264 262 254 250 240 234 243 240 255 257 261 220 226 227 242 219 204 202 223 227 222 220 219 223 224 225 230 231 229 226 227 226 225 224 221 221 221 213 210 210 210 212 214 216 217 218 218 217 215 211 209 212 212 208 207 205 203 199 198 199 197
269 271 273 272 270 269 270 275 277 279 278 276 271 269 267 260 255 252 247 239 247 248 257 256 259 231 227 241 229 201 199 203 215 230 232 227 217 210 225 226 223 220 220 219 227 228 227 225 222 224 220 213 212 211 211 211 213 215 216 216 215 216 214 211 211 211 208 204 203 201 199 197 196 195
264 263 265 268 265 261 256 261 265 269 273 271 268 266 268 265 262 259 254 248 247 249 257 259 245 247 227 216 237 215 198 215 210 211 206 227 216 207 215 228 222 219 224 229 230 230 228 225 223 224 223 219 216 216 212 212 211 212 211 211 215 213 214 214 212 211 209 206 203 200 199 198 197 194
263 258 257 259 260 257 257 255 257 250 257 263 268 266 264 264 260 260 260 257 252 255 257 255 257 234 232 231 243 97 169 224 243 222 203 219 213 213 217 220 219 214 214 221 221 230 230 227 226 227 228 227 224 220 216 214 211 210 208 208 211 212 212 214 214 213 211 209 205 200 198 199 200 196
279 271 261 257 256 256 258 257 255 254 248 249 260 261 258 259 259 259 261 258 256 258 258 262 255 248 236 229 214 206 207 208 222 188 190 230 228 214 231 239 230 216 210 220 213 220 215 221 221 220 224 226 224 222 216 214 213 209 208 209 210 211 210 212 213 215 214 214 212 205 202 202 202 200
280 276 274 268 259 258 259 261 263 260 257 254 247 250 251 249 254 254 258 257 254 256 257 255 256 251 247 234 218 222 223 219 199 179 201 223 215 173 230 244 225 210 205 206 218 223 207 213 225 220 227 226 217 222 215 213 209 210 210 210 209 209 211 209 211 212 212 214 214 210 204 203 202 201
284 283 277 274 272 269 264 261 259 259 259 260 260 256 249 241 239 250 250 251 249 251 252 256 253 250 253 247 217 222 223 202 205 213 205 215 203 206 212 234 223 185 186 213 225 237 208 205 222 221 223 219 213 219 218 215 209 209 210 210 208 209 211 211 211 210 209 212 213 212 206 204 201 200
280 281 281 279 276 271 267 265 261 258 256 257 259 261 260 255 247 239 237 245 251 242 248 252 250 249 249 255 234 223 214 207 211 219 212 211 210 215 221 230 232 174 177 190 212 239 205 201 224 229 225 217 212 216 215 214 211 209 209 211 210 208 209 211 213 209 207 210 214 212 205 204 201 199
282 281 280 280 275 273 272 270 267 268 265 257 255 257 262 262 257 252 246 241 241 244 246 249 253 242 249 253 245 225 214 190 215 206 216 215 220 222 229 231 225 139 176 184 217 233 217 187 218 228 227 215 212 218 215 215 214 212 210 210 210 208 208 210 212 211 207 209 213 208 204 203 201 199
281 280 282 283 282 279 277 273 272 271 268 270 267 263 259 257 258 257 254 252 247 242 242 243 250 249 236 246 249 232 190 201 216 211 220 215 219 219 230 234 218 166 180 189 200 240 224 194 210 228 230 204 215 218 215 216 216 215 213 210 210 209 208 208 210 211 207 209 212 207 202 201 200 198
277 278 278 278 279 282 281 279 279 276 273 270 268 267 263 258 255 252 250 248 247 244 240 240 245 252 248 243 247 235 203 216 218 214 215 215 216 224 237 248 223 209 195 192 185 234 231 172 204 230 221 200 218 220 214 218 219 219 217 215 212 211 209 208 209 211 207 208 210 204 201 200 199 198
275 276 276 278 279 282 283 284 285 284 283 278 272 266 264 263 259 255 244 242 239 241 240 240 242 246 248 240 240 236 217 223 228 228 233 226 218 222 231 237 224 226 188 194 198 232 238 160 201 232 199 192 221 215 209 218 219 220 221 219 216 215 209 210 211 212 208 209 209 203 200 199 198 198
284 280 277 280 281 279 276 280 281 281 281 279 276 271 267 263 261 260 257 250 247 245 241 240 239 243 246 244 240 240 235 232 211 207 212 220 203 215 228 238 229 228 183 201 208 225 241 186 206 221 172 197 216 212 210 211 217 219 220 221 220 217 213 210 212 212 209 209 206 202 200 199 197 197
275 278 282 282 282 282 282 284 282 281 282 281 279 275 269 267 262 260 258 258 252 245 246 246 245 245 246 246 242 239 237 234 225 199 223 218 204 219 220 235 227 228 202 203 194 210 235 190 185 189 254 214 237 217 210 199 209 218 222 222 223 221 217 212 213 214 211 206 202 203 200 198 196 196
282 285 287 288 286 285 284 284 282 280 278 275 274 274 271 266 261 259 261 258 258 254 250 249 248 250 249 247 242 238 240 238 232 221 225 220 212 216 226 232 235 240 232 210 173 204 230 209 194 170 124 235 257 216 202 197 201 206 212 218 220 221 219 216 214 214 209 202 202 202 200 198 196 187
282 280 281 281 283 283 282 280 278 275 272 270 270 270 270 269 267 264 261 256 255 258 252 248 242 243 243 245 235 231 232 235 231 230 223 221 215 219 228 224 220 231 234 172 163 199 221 188 183 197 196 216 248 199 196 202 198 200 202 208 211 213 215 214 215 213 205 200 201 202 201 200 196 181
292 292 290 290 292 292 292 291 290 288 282 275 264 259 257 259 266 269 261 258 254 253 251 248 245 243 239 239 229 225 225 225 224 225 226 220 216 217 224 224 221 234 234 190 171 188 209 171 197 179 215 231 288 112 239 202 210 203 206 204 203 201 199 206 202 204 205 202 202 205 204 201 202 192
289 293 296 297 296 295 293 291 290 289 288 287 286 278 275 271 268 266 263 258 252 244 243 242 240 240 237 238 229 223 222 221 220 221 221 222 218 217 221 221 221 230 235 185 177 191 194 204 185 188 196 198 245 152 155 210 213 201 209 212 207 196 193 190 192 196 196 198 202 205 204 205 206 198
281 281 281 284 287 287 286 285 283 281 281 282 280 280 278 275 270 270 270 270 257 244 237 235 236 235 234 232 232 222 224 222 220 220 218 222 222 223 226 226 228 235 238 165 183 194 201 212 181 194 194 202 202 129 195 180 213 190 202 204 205 195 197 183 194 192 195 193 194 203 206 208 209 207
280 283 279 277 281 283 283 284 285 285 284 282 281 281 280 279 282 281 270 261 261 253 238 232 231 233 229 229 228 225 221 221 218 218 219 221 222 224 227 228 231 232 230 172 188 200 201 209 198 199 196 188 194 198 212 195 94 188 180 193 164 193 192 195 194 189 192 188 185 192 194 199 204 208
276 279 284 288 290 291 290 290 291 291 292 290 288 285 283 283 280 277 271 265 256 253 246 234 229 229 229 226 227 223 220 219 210 206 218 217 219 220 224 228 226 224 224 185 193 200 204 209 207 191 199 196 201 210 205 202 171 188 177 172 195 205 199 200 195 192 186 184 188 189 193 186 192 196
288 289 290 290 290 291 289 287 279 271 272 273 276 280 282 281 274 272 280 277 266 255 247 241 231 227 226 227 226 225 212 193 201 200 209 206 214 212 219 225 228 230 227 192 197 202 206 211 211 194 198 204 207 210 207 189 194 189 183 189 189 164 202 180 180 178 185 181 188 189 189 188 190 189
277 278 278 276 278 280 282 283 284 284 284 283 281 277 275 271 270 270 263 267 271 269 256 244 237 230 223 223 220 214 189 202 209 202 202 202 211 202 209 213 225 214 214 223 221 209 207 211 212 195 198 205 210 214 204 197 193 183 190 192 175 189 194 175 141 186 168 143 179 182 175 161 183 189
257 258 264 270 273 276 276 277 269 263 258 260 265 262 260 260 265 267 268 268 269 269 264 251 240 230 222 214 214 207 205 210 210 199 196 201 208 199 183 203 223 219 204 203 231 251 252 222 214 210 207 202 206 207 199 199 199 190 189 192 197 203 169 159 185 161 149 128 176 191 193 185 170 168
249 247 256 251 261 256 258 256 257 259 260 262 262 264 260 259 262 263 261 261 262 265 262 251 241 231 217 219 208 208 206 211 211 194 199 203 201 187 185 208 216 214 203 209 200 216 203 232 349 227 214 215 219 196 180 194 207 188 186 190 192 196 157 180 176 139 147 153 187 188 181 182 175 175
296 291 283 282 280 280 277 275 272 270 265 263 262 258 270 271 268 265 266 265 263 263 263 257 246 237 229 222 211 205 211 209 209 194 190 202 193 186 195 209 220 215 204 204 187 190 161 126 109 72 58 62 28 191 197 200 196 191 189 189 187 192 176 175 168 162 172 177 178 170 175 186 178 179
297 296 294 291 284 281 282 278 275 271 269 264 261 259 258 258 266 267 268 267 269 271 270 257 240 230 225 223 215 210 204 208 202 194 199 195 187 195 199 209 219 210 196 191 181 176 161 160 144 119 73 48 122 295 325 258 201 192 186 194 191 184 171 161 167 162 141 163 157 162 178 95 177 176
311 301 297 294 288 285 282 281 279 276 272 264 263 262 261 259 259 264 264 269 269 269 266 258 239 222 218 215 216 213 208 203 205 188 191 190 193 198 203 209 213 209 194 198 186 174 170 174 172 173 182 183 197 213 232 207 203 195 182 187 180 164 160 159 168 168 160 168 180 161 178 181 171 170
306 300 293 286 287 286 284 279 276 272 267 263 261 255 253 254 253 259 261 264 266 267 268 269 258 234 219 220 222 220 212 204 204 190 190 191 192 193 196 208 210 207 198 203 177 173 174 181 188 185 189 193 196 214 211 91 154 243 174 174 163 169 160 159 163 172 171 161 139 174 172 152 160 173
290 291 286 285 281 282 278 278 276 273 269 263 263 258 249 249 252 260 267 265 263 263 265 261 255 256 246 227 224 220 215 202 198 193 193 188 189 195 199 203 207 200 203 185 171 181 185 184 189 194 192 196 203 213 204 161 123 233 191 176 155 159 156 156 173 175 176 167 142 152 151 126 158 161
298 295 292 289 289 288 287 285 281 279 272 268 261 259 256 252 253 255 258 263 264 262 259 252 248 239 235 230 226 224 217 203 201 198 194 197 194 197 198 200 200 191 177 180 174 179 181 194 197 199 200 200 207 209 189 171 196 193 185 185 163 165 175 176 176 167 162 161 158 129 73 113 92 108
313 311 309 308 303 302 299 299 295 290 282 277 273 266 258 257 254 255 258 258 262 268 265 258 248 240 234 231 230 226 216 204 201 197 197 198 200 198 196 192 195 178 178 184 177 187 192 200 198 200 206 205 174 77 114 121 55 84 157 194 188 179 176 166 168 165 164 149 146 133 136 138 109 182
317 315 312 308 303 303 302 298 295 293 288 280 273 264 256 255 256 255 256 263 268 266 259 246 234 231 235 231 220 213 215 205 200 198 193 194 193 195 196 189 188 179 183 193 190 189 201 204 183 118 88 98 124 98 92 112 141 149 168 179 187 182 173 162 138 142 151 152 140 150 156 149 147 152
316 312 310 307 306 304 301 294 299 304 298 286 268 255 251 249 250 252 255 258 257 253 247 244 236 226 224 220 219 208 210 206 207 204 194 187 188 193 194 190 189 185 188 195 196 200 171 113 140 131 122 128 137 157 181 180 163 153 161 162 147 173 172 169 160 148 153 151 146 139 123 105 103 121
313 310 310 308 305 301 300 304 310 312 314 304 280 266 263 263 265 263 263 262 265 258 245 236 232 229 229 221 212 201 201 202 197 196 189 188 184 181 184 192 194 188 194 193 130 122 136 145 136 137 151 154 178 175 185 173 155 151 149 146 145 135 154 165 167 166 159 158 153 145 145 146 149 169
311 311 309 311 312 307 308 314 315 317 320 324 309 282 271 271 269 266 267 270 268 264 249 237 230 222 216 206 199 202 201 190 181 184 186 190 187 187 189 189 184 177 162 132 132 137 135 147 156 150 160 177 171 155 165 136 147 158 154 140 129 127 111 69 110 147 151 157 168 175 171 157 142 135
310 310 312 314 313 313 315 315 320 320 324 324 326 325 313 291 279 280 282 287 279 271 254 235 228 227 215 197 179 193 202 194 183 183 178 178 181 179 174 166 156 150 146 142 132 131 140 142 146 147 151 152 128 140 137 145 150 141 139 141 142 133 112 118 126 122 112 65 68 85 81 84 75 64